Bangor, ME

9:32 AM EST on February 25, 2017 (GMT -0500)
Bangor International

Weather History for KBGR - May, 2013

Change the Weather History Date:

Tuesday, May 28, 2013

  Actual Average Record
Temperature  
Mean Temperature 53 °F 58 °F  
Max Temperature 71 °F 69 °F 90 °F (1959)
Min Temperature 35 °F 46 °F 33 °F (1994)
Degree Days  
Heating Degree Days 12 8  
Month to date heating degree days 339 334  
Since 1 July heating degree days 7434 7732  
Cooling Degree Days 0 0  
Month to date cooling degree days 0 0  
Year to date cooling degree days 0 0  
Growing Degree Days 4 (Base 50)    
Moisture  
Dew Point 37 °F    
Average Humidity 57    
Maximum Humidity 92    
Minimum Humidity 22    
Precipitation  
Precipitation 0.00 in 0.12 in 1.43 in (1961)
Month to date precipitation 4.41 3.27  
Year to date precipitation 11.14 15.68  
Snow  
Snow 0.00 in 0.00 in 0.00 in (2002)
Month to date snowfall 0.0 0.1  
Since 1 July snowfall 74.3 66.2  
Snow Depth 0.00 in    
Sea Level Pressure  
Sea Level Pressure 30.20 in    
Wind  
Wind Speed 3 mph (South)    
Max Wind Speed 18 mph    
Max Gust Speed 24 mph    
Visibility 10 miles    
Events      
T = Trace of Precipitation, MM = Missing Value Source: NWS Daily Summary

Daily Weather History Graph

Daily Weather History Graph

Search for Another Location

Airport or City:

Trip Planner

Search our weather history database for the weather conditions in past years. The results will help you decide how hot, cold, wet, or windy it might be!

Date:

Astronomy

May. 28, 2013 Rise Set
Actual Time 4:54 AM EDT 8:10 PM EDT
Civil Twilight 4:19 AM EDT 8:46 PM EDT
Nautical Twilight 3:32 AM EDT 9:33 PM EDT
Astronomical Twilight 2:35 AM EDT 10:31 PM EDT
Moon 11:26 PM EDT (5/28) 8:43 AM EDT (5/28)
Length of Visible Light 16h 27m
Length of Day
15h 16m
Waning Gibbous, 83% of the Moon is Illuminated
May 28
Waning Gibbous
May 31
Last Quarter
Jun 8
New
Jun 16
First Quarter
Jun 23
Full

Hourly Weather History & Observations

Time (EDT) Temp. Windchill Dew Point Humidity Pressure Visibility Wind Dir Wind Speed Gust Speed Precip Events Conditions
12:53 AM 39.0 °F - 37.0 °F 93% 30.17 in 10.0 mi Calm Calm - N/A   Clear
1:53 AM 39.9 °F 35.1 °F 37.9 °F 93% 30.18 in 10.0 mi SW 6.9 mph - N/A   Clear
2:53 AM 39.9 °F 36.7 °F 37.9 °F 93% 30.18 in 10.0 mi SW 4.6 mph - N/A   Clear
3:53 AM 39.9 °F - 37.0 °F 89% 30.18 in 10.0 mi Calm Calm - N/A   Clear
4:53 AM 37.0 °F - 36.0 °F 96% 30.19 in 10.0 mi Calm Calm - N/A   Clear
5:53 AM 39.0 °F - 37.0 °F 93% 30.21 in 10.0 mi Calm Calm - N/A   Partly Cloudy
6:53 AM 46.0 °F - 41.0 °F 83% 30.22 in 10.0 mi Calm Calm - N/A   Partly Cloudy
7:53 AM 51.1 °F - 41.0 °F 68% 30.23 in 10.0 mi Calm Calm - N/A   Partly Cloudy
8:53 AM 55.0 °F - 41.0 °F 59% 30.23 in 10.0 mi SSW 3.5 mph - N/A   Clear
9:53 AM 61.0 °F - 41.0 °F 48% 30.22 in 10.0 mi Calm Calm - N/A   Partly Cloudy
10:53 AM 64.9 °F - 39.9 °F 40% 30.22 in 10.0 mi ESE 4.6 mph - N/A   Scattered Clouds
11:53 AM 66.9 °F - 35.1 °F 31% 30.22 in 10.0 mi Variable 3.5 mph - N/A   Scattered Clouds
12:53 PM 69.1 °F - 34.0 °F 27% 30.20 in 10.0 mi Variable 3.5 mph - N/A   Scattered Clouds
1:53 PM 71.1 °F - 30.0 °F 22% 30.19 in 10.0 mi West 5.8 mph - N/A   Scattered Clouds
2:53 PM 71.1 °F - 35.1 °F 27% 30.18 in 10.0 mi ESE 5.8 mph - N/A   Scattered Clouds
3:53 PM 70.0 °F - 39.9 °F 33% 30.18 in 10.0 mi SSE 10.4 mph - N/A   Partly Cloudy
4:53 PM 68.0 °F - 36.0 °F 31% 30.17 in 10.0 mi SSE 13.8 mph - N/A   Partly Cloudy
5:53 PM 64.9 °F - 35.1 °F 33% 30.18 in 10.0 mi SSE 15.0 mph 19.6 mph N/A   Mostly Cloudy
6:53 PM 62.1 °F - 34.0 °F 35% 30.18 in 10.0 mi South 11.5 mph 20.7 mph N/A   Mostly Cloudy
7:53 PM 59.0 °F - 35.1 °F 41% 30.19 in 10.0 mi South 9.2 mph - N/A   Mostly Cloudy
8:53 PM 55.9 °F - 37.0 °F 49% 30.20 in 10.0 mi South 3.5 mph - N/A   Mostly Cloudy
9:53 PM 54.0 °F - 37.0 °F 53% 30.22 in 10.0 mi South 4.6 mph - N/A   Overcast
10:53 PM 51.1 °F - 37.9 °F 61% 30.22 in 10.0 mi South 3.5 mph - N/A   Mostly Cloudy
11:53 PM 46.9 °F - 39.9 °F 77% 30.22 in 10.0 mi Calm Calm - N/A   Mostly Cloudy